Regional Weather Roundup
Issued by NWS

Home | Current Version | Previous Version | Text Only | Print | Product List | Glossary On
Versions: 1 2 3 4 5 6 7 8 9 10 11 12 13 14 15 16 17 18 19 20 21 22 23 24 25 26 27 28 29 30 31 32 33 34 35 36 37 38 39 40 41 42 43 44 45 46 47 48 49 50
000
ASUS44 KLIX 140112
RWRLA
LOUISIANA WEATHER ROUNDUP
NATIONAL WEATHER SERVICE NEW ORLEANS LA
700 PM CST WED DEC 13 2017

NOTE: "FAIR" INDICATES FEW OR NO CLOUDS BELOW 12,000 FEET WITH NO
      SIGNIFICANT WEATHER AND/OR OBSTRUCTIONS TO VISIBILITY.
      SKY/WX - SKY CONDITION AND SIGNIFICANT WEATHER.
      TMP - AIR TEMPERATURE.    DP   - DEWPOINT TEMPERATURE.
      RH  - RELATIVE HUMIDITY.  PRES - PRESSURE.
      HX  - HEAT INDEX.         WCI  - WIND CHILL INDEX.

*  THESE STATIONS ARE NOT NWS OR FAA STATIONS AND ARE NOT UNDER
   NWS QUALITY CONTROL.

LAZ040-048-061>063-065-066-069-140200-
SOUTHEAST LOUISIANA

CITY           SKY/WX    TMP DP  RH WIND       PRES   REMARKS
N.O. INTL ARPT CLOUDY    53  37  54 SW6       30.03S
N.O. LAKEFRONT CLOUDY    54  39  57 SW9       30.04R
N.O. DOWNTOWN* FAIR      56  40  55 S7        30.04S
RESERVE*       FAIR      52  36  54 W7        30.04S
SLIDELL        CLOUDY    45  40  82 CALM      30.02S
BATON ROUGE    PTCLDY    51  38  60 SW9       30.02S
BOOTHVILLE     PTCLDY    54  47  77 SW5       30.06R
BELLE CHASSE   MOCLDY    47  40  76 SW5       30.04R
BOGALUSA*      FAIR      43  37  80 MISG      30.01F
GALLIANO*      CLOUDY    43  38  83 CALM      30.05S
NEW ROADS*     FAIR      47  36  66 SW3       30.02F
GONZALES*      FAIR      49  38  66 CALM      30.03S
HAMMOND*       PTCLDY    45  39  81 CALM      30.02S
HOUMA*         CLOUDY    47  41  81 CALM      30.04F
PORT FOURCHON* CLEAR     57  46  67 SW8       30.06S

$$

LAZ041-044-053-054-140200-
SOUTHWEST LOUISIANA

CITY           SKY/WX    TMP DP  RH WIND       PRES   REMARKS
LAKE CHARLES   CLOUDY    47  43  86 CALM      30.02F
LAFAYETTE      CLOUDY    51  41  68 SW3       30.03S
PATTERSON      CLOUDY    48  42  80 CALM      30.05S
SALT POINT       N/A     50  46  86 CALM      30.03F
NEW IBERIA     PTCLDY    50  43  77 SW3       30.04S
CHENAULT AIRPK NOT AVBL

$$

LAZ027-028-140200-
CENTRAL LOUISIANA

CITY           SKY/WX    TMP DP  RH WIND       PRES   REMARKS
FORT POLK      CLOUDY    49  35  59 S7        29.97F
ALEXANDRIA INT CLOUDY    46  34  62 S6        29.97S
ALEXANDRIA     CLOUDY    46  34  62 SW5       29.97F

$$

LAZ001-002-140200-
NORTHWEST LOUISIANA

CITY           SKY/WX    TMP DP  RH WIND       PRES   REMARKS
SHREVEPORT     PTCLDY    54  31  41 SW10      29.92R
BARKSDALE AFB  CLEAR     53  30  41 S9        29.92R
DTN SHREVEPORT CLEAR     55  31  39 SW8       29.93R

$$

LAZ014-016-140200-
NORTHEAST LOUISIANA

CITY           SKY/WX    TMP DP  RH WIND       PRES   REMARKS
MONROE         CLEAR     50  31  48 S9        29.93R
TALLULAH       CLOUDY    52  30  43 VRB7      29.95R

$$




USA.gov is the U.S. government's official web portal to all federal, state and local government web resources and services.